Fort Belvoir, VA

10:47 AM EDT on April 28, 2017 (GMT -0400)
Davison Army Air Field

Weather History for KDAA - February, 2014

Change the Weather History Date:

Monday, February 3, 2014

  Actual Average Record
Temperature  
Mean Temperature 40 °F -  
Max Temperature 48 °F 45 °F 64 °F (1997)
Min Temperature 32 °F 27 °F 21 °F (2001)
Degree Days  
Heating Degree Days 24    
Moisture  
Dew Point 37 °F    
Average Humidity 92    
Maximum Humidity 100    
Minimum Humidity 65    
Precipitation  
Precipitation 1.24 in - - ()
Sea Level Pressure  
Sea Level Pressure 30.10 in    
Wind  
Wind Speed 5 mph (North)    
Max Wind Speed 9 mph    
Max Gust Speed 17 mph    
Visibility 7 miles    
Events Rain    
Averages and records for this station are not official NWS values.
T = Trace of Precipitation, MM = Missing Value Source: NWS Daily Summary

Daily Weather History Graph

Daily Weather History Graph

Search for Another Location

Airport or City:

Trip Planner

Search our weather history database for the weather conditions in past years. The results will help you decide how hot, cold, wet, or windy it might be!

Date:

Astronomy

Feb. 03, 2014 Rise Set
Actual Time 7:12 AM EST 5:32 PM EST
Civil Twilight 6:44 AM EST 6:00 PM EST
Nautical Twilight 6:13 AM EST 6:32 PM EST
Astronomical Twilight 5:42 AM EST 7:03 PM EST
Moon 9:17 AM EST (2/3) 10:17 PM EST (2/3)
Length of Visible Light 11h 15m
Length of Day
10h 20m
Waxing Crescent, 19% of the Moon is Illuminated
Feb 3
Waxing Crescent
Feb 6
First Quarter
Feb 14
Full
Feb 22
Last Quarter
Mar 1
New

Hourly Weather History & Observations

Time (EST) Temp. Windchill Dew Point Humidity Pressure Visibility Wind Dir Wind Speed Gust Speed Precip Events Conditions
12:58 AM 48.9 °F - 37.8 °F 65% 30.08 in 10.0 mi Variable 3.5 mph - N/A   Overcast
1:58 AM 47.3 °F - 38.8 °F 72% 30.07 in 10.0 mi North 6.9 mph - N/A   Overcast
1:59 AM 46.4 °F 43.5 °F 39.2 °F 76% 30.06 in 10.0 mi Variable 5.8 mph - N/A Rain Light Rain
2:04 AM 46.4 °F 42.4 °F 39.2 °F 76% 30.07 in 9.0 mi NNW 8.1 mph - N/A Rain Light Rain
2:49 AM 42.8 °F 39.3 °F 41.0 °F 93% 30.08 in 5.0 mi NNE 5.8 mph - N/A Rain Rain
2:58 AM 43.5 °F 39.4 °F 41.5 °F 93% 30.08 in 5.0 mi NNE 6.9 mph - 0.06 in Rain Light Rain
3:23 AM 42.8 °F 41.1 °F 41.0 °F 93% 30.04 in 9.0 mi NNE 3.5 mph - N/A   Light Drizzle
3:26 AM 42.8 °F - 41.0 °F 93% 30.05 in 10.0 mi Variable 1.2 mph - N/A   Overcast
3:41 AM 42.8 °F 39.3 °F 41.0 °F 93% 30.03 in 10.0 mi North 5.8 mph - N/A   Overcast
3:46 AM 42.8 °F 40.1 °F 41.0 °F 93% 30.05 in 9.0 mi Variable 4.6 mph - N/A   Light Drizzle
3:58 AM 42.4 °F 40.7 °F 41.0 °F 95% 30.07 in 8.0 mi North 3.5 mph - 0.00 in Rain Light Rain
4:13 AM 42.8 °F 40.1 °F 41.0 °F 93% 30.06 in 4.0 mi Variable 4.6 mph - N/A Rain Rain
4:43 AM 41.0 °F 38.0 °F 41.0 °F 100% 30.06 in 4.0 mi Variable 4.6 mph - N/A Rain Rain
4:58 AM 41.5 °F 38.6 °F 41.4 °F 99% 30.06 in 4.0 mi Variable 4.6 mph - 0.15 in Rain Rain
5:18 AM 41.0 °F 38.0 °F 41.0 °F 100% 30.04 in 4.0 mi Variable 4.6 mph - N/A Rain Rain
5:23 AM 41.0 °F - 41.0 °F 100% 30.05 in 4.0 mi Variable 2.3 mph - N/A Rain Rain
5:48 AM 41.0 °F 39.0 °F 41.0 °F 100% 30.06 in 4.0 mi Variable 3.5 mph - N/A Rain Rain
5:58 AM 41.0 °F 38.0 °F 40.8 °F 99% 30.06 in 4.0 mi NE 4.6 mph - N/A Rain Rain
6:03 AM 41.0 °F 37.1 °F 41.0 °F 100% 30.05 in 3.0 mi Variable 5.8 mph - N/A Rain Rain
6:28 AM 41.0 °F - 41.0 °F 100% 30.05 in 4.0 mi Variable 1.2 mph - N/A Rain Rain
6:58 AM 40.3 °F 38.2 °F 39.9 °F 99% 30.05 in 3.0 mi NE 3.5 mph - 0.28 in Rain Heavy Rain
7:13 AM 39.2 °F 37.0 °F 39.2 °F 100% 30.03 in 3.0 mi Variable 3.5 mph - N/A Rain Rain
7:18 AM 39.2 °F 35.0 °F 39.2 °F 100% 30.01 in 3.0 mi Variable 5.8 mph - N/A Rain Rain
7:33 AM 39.2 °F - 39.2 °F 100% 30.03 in 2.5 mi Variable 2.3 mph - N/A Rain Rain
7:38 AM 39.2 °F 37.0 °F 39.2 °F 100% 30.03 in 2.5 mi Variable 3.5 mph - N/A Rain Rain
7:48 AM 39.2 °F 35.9 °F 39.2 °F 100% 30.03 in 2.0 mi Variable 4.6 mph - N/A Rain Rain
7:53 AM 39.2 °F 35.0 °F 39.2 °F 100% 30.02 in 2.5 mi Variable 5.8 mph - N/A Rain Rain
7:58 AM 39.4 °F 36.1 °F 39.2 °F 99% 30.03 in 2.5 mi Variable 4.6 mph - 0.27 in Rain Rain
8:03 AM 39.2 °F 35.9 °F 39.2 °F 100% 30.02 in 4.0 mi NNE 4.6 mph - N/A Rain Light Rain
8:08 AM 39.2 °F 37.0 °F 39.2 °F 100% 30.02 in 4.0 mi Variable 3.5 mph - N/A Rain Rain
8:23 AM 39.2 °F 35.0 °F 39.2 °F 100% 30.00 in 2.5 mi Variable 5.8 mph - N/A Rain Rain
8:48 AM 39.2 °F 35.0 °F 39.2 °F 100% 30.04 in 2.5 mi Variable 5.8 mph - N/A Rain Heavy Rain
8:53 AM 39.2 °F 33.0 °F 37.4 °F 93% 30.06 in 3.0 mi NNW 9.2 mph - N/A Rain Heavy Rain
8:58 AM 38.7 °F 33.6 °F 38.1 °F 98% 30.09 in 3.0 mi NNW 6.9 mph - 0.24 in Rain Heavy Rain
9:48 AM 39.2 °F 35.9 °F 37.4 °F 93% 30.07 in 5.0 mi Variable 4.6 mph - N/A Rain Rain
9:58 AM 38.3 °F 35.9 °F 37.6 °F 97% 30.07 in 6.0 mi North 3.5 mph - 0.18 in Rain Rain
10:08 AM 37.4 °F 33.8 °F 37.4 °F 100% 30.04 in 7.0 mi NNE 4.6 mph - N/A Rain Light Rain
10:48 AM 39.2 °F 35.9 °F 37.4 °F 93% 30.05 in 10.0 mi Variable 4.6 mph - N/A Rain Light Rain
10:58 AM 38.3 °F 34.8 °F 36.5 °F 93% 30.06 in 9.0 mi Variable 4.6 mph - 0.02 in Rain Light Rain
11:18 AM 37.4 °F 33.8 °F 37.4 °F 100% 30.03 in 7.0 mi NNW 4.6 mph - N/A Rain Light Rain
11:51 AM 37.4 °F 32.1 °F 35.6 °F 93% 30.06 in 10.0 mi North 6.9 mph - N/A   Overcast
11:58 AM 38.1 °F 32.3 °F 36.5 °F 94% 30.07 in 10.0 mi NNW 8.1 mph - N/A   Overcast
12:35 PM 37.4 °F 30.8 °F 35.6 °F 93% 30.08 in 10.0 mi NNW 9.2 mph 17.3 mph N/A Rain Light Rain
12:58 PM 37.4 °F 31.4 °F 35.6 °F 93% 30.09 in 6.0 mi North 8.1 mph 17.3 mph 0.01 in Rain Light Rain
1:13 PM 37.4 °F 32.1 °F 35.6 °F 93% 30.09 in 8.0 mi North 6.9 mph - N/A Rain Light Rain
1:18 PM 37.4 °F 31.4 °F 35.6 °F 93% 30.09 in 6.0 mi NNW 8.1 mph - N/A Rain Light Rain
1:23 PM 37.4 °F 31.4 °F 35.6 °F 93% 30.08 in 4.0 mi NNW 8.1 mph - N/A Rain Light Rain
1:28 PM 37.4 °F 30.8 °F 35.6 °F 93% 30.09 in 5.0 mi NNW 9.2 mph - N/A Rain Light Rain
1:58 PM 36.7 °F 31.2 °F 34.9 °F 93% 30.11 in 10.0 mi NNW 6.9 mph - 0.03 in Rain Light Rain
2:23 PM 37.4 °F 33.8 °F 35.6 °F 93% 30.11 in 10.0 mi Variable 4.6 mph - N/A Rain Light Rain
2:38 PM 37.4 °F 32.1 °F 35.6 °F 93% 30.11 in 10.0 mi NNW 6.9 mph - N/A Rain Light Rain
2:42 PM 37.4 °F 30.8 °F 35.6 °F 93% 30.11 in 10.0 mi NNW 9.2 mph - N/A   Overcast
2:58 PM 37.6 °F 32.3 °F 35.4 °F 92% 30.13 in 10.0 mi NNW 6.9 mph - 0.00 in   Overcast
3:28 PM 37.4 °F 32.8 °F 35.6 °F 93% 30.14 in 10.0 mi NNW 5.8 mph - N/A   Overcast
3:58 PM 38.3 °F 31.9 °F 35.1 °F 88% 30.17 in 10.0 mi NNW 9.2 mph - N/A   Overcast
4:58 PM 37.6 °F 31.6 °F 34.2 °F 87% 30.19 in 10.0 mi NNW 8.1 mph - N/A   Overcast
5:13 PM 37.4 °F 32.1 °F 33.8 °F 87% 30.20 in 10.0 mi NNW 6.9 mph - N/A   Overcast
5:18 PM 37.4 °F 32.8 °F 33.8 °F 87% 30.21 in 10.0 mi NNW 5.8 mph - N/A   Overcast
5:23 PM 37.4 °F 32.1 °F 33.8 °F 87% 30.21 in 10.0 mi NNW 6.9 mph - N/A   Overcast
5:28 PM 37.4 °F 30.8 °F 32.0 °F 81% 30.22 in 10.0 mi NNW 9.2 mph - N/A   Overcast
5:58 PM 37.6 °F 32.3 °F 32.0 °F 80% 30.25 in 10.0 mi North 6.9 mph - N/A   Overcast
6:38 PM 37.4 °F 34.9 °F 32.0 °F 81% 30.24 in 10.0 mi Variable 3.5 mph - N/A   Overcast
6:58 PM 36.9 °F 32.2 °F 32.0 °F 83% 30.26 in 10.0 mi Variable 5.8 mph - N/A   Scattered Clouds
7:58 PM 36.0 °F 30.3 °F 30.6 °F 81% 30.31 in 10.0 mi NNW 6.9 mph - N/A   Mostly Cloudy
8:58 PM 35.8 °F 33.0 °F 29.8 °F 79% 30.32 in 10.0 mi North 3.5 mph - N/A   Overcast
9:58 PM 35.1 °F 30.1 °F 29.1 °F 79% 30.33 in 10.0 mi North 5.8 mph - N/A   Overcast
10:58 PM 33.6 °F 30.6 °F 27.5 °F 78% 30.35 in 10.0 mi North 3.5 mph - N/A   Clear
11:58 PM 32.9 °F - 26.6 °F 78% 30.36 in 10.0 mi NNE 2.3 mph - N/A   Clear